Location: Ash Swamp
(41.5170°N, 74.6157°W)
Time: 01:53:39
(UTC+00:00)

Cosmos 1867 - Pass Details

Date: 14 July 2020
Orbit: 778 x 798 km, 65.0° (Epoch: 14 August)

Event Time Altitude Azimuth Distance (km) Brightness Sun altitude
Exits shadow 08:49:59 - 217° (SW) 2,432 5.5 -8.1°
Reaches altitude 10° 08:50:13 10° 217° (SW) 2,346 5.4 -8.1°
Maximum altitude 08:55:37 77° 303° (WNW) 817 3.6 -7.3°
Drops below altitude 10° 09:01:05 10° 30° (NNE) 2,372 7.3 -6.5°
Sets 09:03:32 0° 32° (NNE) 3,307 8.3 -6.1°
